Lid_Strength_Index
4 3 2 2 2 2 2 1 1 1 1 1 2 2 2 1 1 1 0 1 0 1 0 0 0 0 1 2 1 1 2 1 1 2 2 2 2 1 1 -0 -0 -0 -0
4 4 3 2 2 2 2 2 2 2 1 1 1 1 2 1 1 0 0 1 1 0 0 0 1 0 2 2 1 1 2 2 1 3 3 5 4 2 1 1 0 0 -0
5 4 4 3 2 2 2 2 1 1 1 1 1 1 1 1 1 1 1 1 0 0 0 0 0 0 1 2 2 1 2 3 1 2 3 5 6 4 2 1 1 1 0
4 4 4 3 3 2 2 1 1 1 1 1 1 2 2 3 2 1 1 0 0 0 0 0 0 0 0 2 1 0 1 2 3 2 1 2 3 5 6 2 1 1 1
5 4 4 3 2 2 2 1 1 1 1 1 1 1 2 2 2 2 1 1 0 0 0 0 1 0 1 1 1 2 3 1 2 2 2 2 3 3 4 5 4 2 1
4 4 3 3 3 2 2 2 2 2 1 1 1 1 2 2 2 2 2 1 1 0 0 0 0 0 0 1 1 2 3 2 1 2 2 2 3 4 3 5 5 4 3
4 4 4 4 3 3 2 2 2 2 1 1 1 1 1 2 2 2 2 2 1 1 1 1 1 0 0 0 1 2 3 2 2 2 2 2 2 2 3 4 5 5 3
5 4 4 3 3 3 2 2 2 2 2 1 1 1 1 1 1 1 1 1 2 1 1 0 0 0 0 0 1 1 1 1 1 2 1 2 2 2 2 3 4 5 4
5 4 4 3 3 3 3 2 2 2 2 2 1 1 1 1 1 1 1 1 1 1 1 0 0 0 0 0 0 1 1 1 2 1 1 2 1 2 2 2 2 4 6
5 4 4 3 3 3 2 2 2 2 2 1 1 1 1 1 1 1 1 1 1 1 1 1 1 1 1 0 1 1 1 1 2 1 2 2 1 2 2 1 2 2 4
5 4 4 3 3 2 2 2 2 2 2 2 1 1 1 1 1 1 1 1 1 1 1 1 1 1 1 1 1 1 1 1 1 2 1 2 1 2 2 1 1 2 3
5 4 4 3 3 3 3 3 2 2 2 1 1 1 1 1 1 1 1 1 1 1 1 1 1 1 1 1 1 1 1 1 1 2 2 2 1 1 1 1 2 2 2
5 5 5 5 4 4 3 3 2 2 2 2 2 2 2 1 1 1 1 2 2 2 1 1 1 1 1 1 1 1 1 1 1 1 2 2 1 2 2 2 2 2 2
5 5 5 5 5 5 4 3 3 2 2 2 2 2 2 1 1 1 1 1 1 2 1 1 1 1 1 1 1 1 1 1 1 1 1 1 1 2 2 2 2 2 2
6 5 5 5 5 5 5 6 5 5 3 2 2 2 2 1 1 1 1 1 1 1 1 1 1 1 1 1 1 1 1 2 2 1 1 1 1 1 2 1 2 2 3
6 5 4 4 4 5 4 5 5 6 4 3 2 2 2 2 2 2 1 2 1 1 2 2 1 1 1 2 2 1 1 1 1 2 1 1 1 2 2 2 3 2 2
6 5 4 4 4 4 3 3 4 4 3 2 2 2 2 2 2 1 1 2 1 2 2 2 2 2 1 3 3 2 1 1 1 1 1 1 1 1 1 3 3 3 3
5 5 4 4 3 2 2 2 2 3 4 2 2 2 2 2 2 2 2 2 1 2 2 2 2 2 2 3 4 3 2 2 2 1 1 2 1 1 2 2 2 3 2
4 4 3 3 3 3 2 2 2 2 4 2 2 2 2 2 2 2 2 2 2 2 2 1 1 2 2 6 5 5 3 3 3 2 1 1 1 3 5 2 3 2 2
4 3 3 3 3 2 2 3 3 2 5 3 2 2 2 2 2 2 2 2 1 2 1 2 1 3 2 6 6 5 2 2 2 2 2 4 2 5 5 2 2 3 2
3 3 3 3 3 2 2 3 3 3 2 2 2 2 2 2 2 2 2 2 2 2 3 3 3 4 5 4 6 7 3 2 2 2 2 2 6 7 8 7 2 3 4
3 3 3 3 4 2 2 3 3 2 2 2 2 2 2 2 2 2 3 2 2 3 4 4 5 5 5 5 4 5 8 5 3 2 2 3 7 8 9 8 6 9 7
3 3 3 3 3 2 2 3 2 2 2 2 3 2 2 2 3 3 4 4 4 4 5 6 5 5 3 3 4 4 7 8 6 2 3 8 11 11 9 8 7 8 7
4 3 4 4 3 2 2 2 2 2 2 3 3 2 2 3 3 3 4 4 5 5 5 5 5 3 2 2 2 2 5 5 4 4 5 7 8 8 7 7 8 7 7
3 3 3 4 3 2 2 2 2 2 3 3 3 3 2 2 3 3 3 4 4 4 4 4 3 3 4 3 5 5 3 4 4 4 4 5 5 6 6 5 6 6 7
4 4 3 3 3 3 2 2 2 2 3 3 3 3 3 4 4 3 2 8 10 11 11 10 6 4 7 8 10 10 10 9 9 3 2 3 4 5 5 5 5 6 5